Regional Weather Roundup
Issued by NWS Charleston, SC

Home | Current Version | Previous Version | Text Only | Print | Product List | Glossary On
Versions: 1 2 3 4 5 6 7 8 9 10 11 12 13 14 15 16 17 18 19 20 21 22 23 24 25 26 27 28 29 30 31 32 33 34 35 36 37 38 39 40 41 42 43 44 45 46 47 48 49 50
000
ASUS42 KCHS 211012
RWRCHS

REGIONAL WEATHER ROUNDUP
NATIONAL WEATHER SERVICE CHARLESTON SC
600 AM EDT SAT OCT 21 2017

NOTE: "FAIR" INDICATES FEW OR NO CLOUDS BELOW 12,000 FEET WITH NO
SIGNIFICANT WEATHER AND/OR OBSTRUCTIONS TO VISIBILITY.

NOT ALL STATIONS ARE QUALITY CONTROLLED. USE DATA WITH CAUTION...
ESPECIALLY DEWPOINT OBSERVATIONS.

SCZ027-030-031-034>040-042>050-211100-
...SOUTHEAST SOUTH CAROLINA...

CITY           SKY/WX    TMP DP  RH WIND       PRES   REMARKS
N CHARLESTON   PTCLDY    55  55 100 N3        30.23R
WATERFRONT PRK NOT AVBL
JOHNS ISLAND   FAIR      57  57 100 CALM      30.23R
PINOPOLIS        N/A     61  59  94 CALM      30.15R
MONCKS CORNER  FAIR      52  50  93 CALM      30.24R
SUMMERVILLE    FAIR      50  48  93 CALM      30.25R
BEAUFORT MCAS  CLEAR     58  58 100 MISG      30.23R
BEAUFORT ARPT  FAIR      59  59 100 CALM      30.22R
HILTON HEAD IS NOT AVBL
WALTERBORO     SUNNY     46  45  93 CALM      30.25R
ALLENDALE        N/A     50  48  93 CALM        N/A

...SOUTHERN MIDLANDS AND PEE DEE...

CITY           SKY/WX    TMP DP  RH WIND       PRES   REMARKS
GEORGETOWN     FAIR      50  50 100 CALM      30.25R
KINGSTREE      FAIR      46  45  93 CALM      30.26R
ORANGEBURG     CLEAR     49  47  93 CALM      30.26R
BARNWELL         N/A     48  46  93 CALM      30.25R
AIKEN          FAIR      46  45  93 CALM      30.29R
MANNING        FOG       50  46  87 MISG      30.26R VSB<1/4
COLUMBIA       PTCLDY    49  47  93 CALM      30.25R
SUMTER         CLEAR     49  47  91 NE3       30.24R
FLORENCE       CLEAR     50  49  96 CALM      30.26R
MYRTLE BEACH   PTCLDY    55  54  96 CALM      30.26
N MYRTLE BEACH CLEAR     53  53 100 NE3       30.25R

$$

GAZ063-065-086>088-099>101-113>116-118-119-134>141-150-211100-
...SOUTHEAST GEORGIA...

CITY           SKY/WX    TMP DP  RH WIND       PRES   REMARKS
SAVANNAH ARPT  CLEAR     58  57  97 N5        30.22R
HUNTER AAF     CLEAR     62  59  90 NE3       30.19R
FORT STEWART   CLEAR     60  57  91 CALM      30.19R
STATESBORO     CLEAR     51  51 100 CALM      30.23R
SYLVANIA         N/A     50  50 100 CALM      30.24R FOG
CLAXTON        FAIR      52  52  99 CALM      30.22S

...CSRA...CENTRAL AND FAR SOUTHEAST GEORGIA...

CITY           SKY/WX    TMP DP  RH WIND       PRES   REMARKS
THOMSON        CLOUDY    44  43  95 CALM      30.30S
AUGUSTA-BUSH   CLEAR     48  45  89 CALM      30.25R
AUGUSTA-DANIEL PTCLDY    57  49  74 CALM      30.26R
SWAINSBORO     FAIR      50  50 100 CALM      30.24R
VIDALIA        CLEAR     55  55 100 CALM      30.22S
EASTMAN        FAIR      49  49 100 CALM      30.24R
HAZLEHURST     FAIR      62  59  91 E6        30.20S
ALMA           CLOUDY    63  59  87 CALM      30.20R
WAYCROSS       CLOUDY    62  59  90 NE5       30.19S
JESUP          NOT AVBL
BAXLEY         FAIR      57  57 100 NE3       30.20S
BRUNSWICK      PTCLDY    64  63  94 CALM      30.19R
SAINT SIMONS   CLOUDY    70  67  90 N8        30.18R

$$

SCZ027-028-034-036>038-045-046-048>050-GAZ119-141-211100-
...LAKE AND SUPPLEMENTAL COASTAL OBSERVATIONS...

STATION/POSITION TIME  TEMP    WIND        PRES    WAVE   SWELL
                       AIR SEA DIR/SP/G            HT/PER HT/PER/DIR
                 (UTC) (F)     (DEG/KT/KT) (MB)    (FT/S) (FT/S/D)
WINYAH BAY       0845   55     320/  4     1023.0
LAKE MURRAY      0920   56        CALM     1023.4
ACE BASIN NERRS  0845   59        CALM     1023.0
FORT PULASKI     0942   68 74   30/  5/  6 1023.3R
SAPELO ISLAND    NOT AVBL

$$

ANZ835-935-AMZ111-154-330-350-352-354-370-450-454-472-211100-
...C-MAN AND BUOY OBSERVATIONS...

STATION/POSITION TIME  TEMP    WIND        PRES    WAVE   SWELL
                       AIR SEA DIR/SP/G            HT/PER HT/PER/DIR
                 (UTC) (F)     (DEG/KT/KT) (MB)    (FT/S) (FT/S/D)
BUOY 41004       0950   75 80   40/ 10/ 14 1022.4R   3/ 8   3/110/ 8
BUOY 41008       0950   77 77  110/ 10/ 14 1021.7R   4/ 8   3/120/ 8
FOLLY BEACH CMAN 0900   69      20/  5/  6 1023.6R
CAPERS NEARSHORE 0908   69 73   60/  6/  8 1022.8R
FRIPP NEARSHORE  0908   74      60/  6/  8   N/A


STATION/POSITION TIME  TEMP    WIND        PRES    WAVE   SWELL
                       AIR SEA DIR/SP/G            HT/PER HT/PER/DIR
                 (UTC) (F)     (DEG/KT/KT) (MB)    (FT/S) (FT/S/D)
5E ST. MARYS GA  0930      77                N/A     4/ 5
FRYING PAN BUOY  0950   73 76   40/  8/ 10 1023.5R   3/ 9   3/120/ 9
BUOY 41025       0950   74 80   30/  8/ 10 1024.1R   3/ 9   3/130/ 9
CAPE LOOKOUT NC  0900   66     360/  7/  8 1023.9R
BUOY 41002       0950   76 80   50/ 12/ 16 1022.5R   5/ 8   3/ 80/ 8
BUOY 41010       NOT AVBL
ST AUGUSTINE FL  1000   78 77   90/ 14/ 16 1020.7R


$$



USA.gov is the U.S. government's official web portal to all federal, state and local government web resources and services.